Weather Roundup
Issued by NWS Chicago, IL

Home | Current Version | Previous Version | Graphics & Text | Print | Product List | Glossary On
Versions: 1 2 3 4 5 6 7 8 9 10 11 12 13 14 15 16 17 18 19 20 21 22 23 24 25 26 27 28 29 30 31 32 33 34 35 36 37 38 39 40 41 42 43 44 45 46 47 48 49 50
000
NZUS59 KLOT 040425
HRRLOT

CHICAGO AREA WEATHER ROUNDUP
NATIONAL WEATHER SERVICE CHICAGO/ROMEOVILLE IL
1100 PM CDT FRI JUL 03 2015

NOTE: "FAIR" INDICATES FEW OR NO CLOUDS BELOW 12,000 FEET WITH NO
SIGNIFICANT WEATHER AND/OR OBSTRUCTIONS TO VISIBILITY.

* THESE STATIONS ARE NOT UNDER NWS QUALITY CONTROL. THEY ALSO MAY NOT
  REPORT WEATHER SUCH AS PRECIPITATION OR FOG.

ILZ005-006-012>014-019>023-040500-
NORTHEAST ILLINOIS

CITY           SKY/WX    TMP DP  RH WIND       PRES   REMARKS
OHARE          MOCLDY    64  54  69 S3        29.94R
MIDWAY         MOCLDY    67  54  63 CALM      29.94R
AURORA         CLEAR     66  55  67 CALM      29.95R
LANSING*       CLEAR     60  55  82 CALM      29.95S
JOLIET*        CLEAR     63  59  86 CALM      29.95R
WAUKEGAN       CLEAR     56  54  93 CALM      29.94R
DUPAGE AIRPORT CLEAR     63  55  75 CALM      29.94R
WHEELING       CLEAR     62  54  74 CALM      29.95S
KANKAKEE*      CLEAR     64  59  85 E3        29.95S
MORRIS*        CLEAR     65  57  73 SE3       29.92F
LEWIS AIRPORT* CLEAR     64  54  70 SE3       29.95S
NORTHERLY IS     N/A     64  56  75 S1          N/A
$$

WIZ051-052-058>065-066-070>072-040500-
SOUTHEAST WISCONSIN

CITY           SKY/WX    TMP DP  RH WIND       PRES   REMARKS
MILWAUKEE      MOCLDY    63  51  65 S5        29.94R
KENOSHA*       CLEAR     58  53  84 CALM      29.95R
RACINE*        CLEAR     60  53  77 SW3       29.96R
BURLINGTON     CLEAR     56  54  95 CALM      29.95R
WAUKESHA       CLEAR     61  52  72 S5        29.96R
WEST BEND      CLEAR     57  52  82 CALM      29.94R
$$

INZ001>003-010>013-019-020-040500-
NORTHWEST INDIANA

CITY           SKY/WX    TMP DP  RH WIND       PRES   REMARKS
GARY*          CLEAR     60  59  97 CALM      29.95S FOG
MICHIGAN CITY* NOT AVBL
RENSSELAER*    NOT AVBL
VALPARAISO     CLEAR     59  54  83 CALM      29.95S
$$

LMZ740>746-040500-
SOUTHERN LAKE MICHIGAN

STATION/POSITION TIME  SKY/WX   TEMP WIND        PRES    VSBY
                                AIR  DIR/SP/G
                 (UTC)          (F)  (DEG/KT/KT) (MB)    (MI)
HARRISON CRIB    0400            64  180/  5/  5   N/A
BURNHAM HARBOR   0400            63  170/  2       N/A
CALUMET HARBOR   0300            65  110/  3/  5   N/A
BURNS HARBOR     0300            65  110/  3/  4 1014.6R
MICHIGAN CITY    0400            63  110/  5/  6   N/A
$$

ABBREVIATIONS USED IN REMARKS
   TC - TEMPERATURE IN CELSIUS
  WCI - WIND CHILL INDEX
   HX - HEAT INDEX
  VSB - VISIBILITY
$$



USA.gov is the U.S. government's official web portal to all federal, state and local government web resources and services.